Wind_Speed
16 16 16 17 18 18 18 18 18 20 22 22 23 24 24 25 26 27 28 30 31 31 31 32 32 33 33 33 31 29 28 27 26 24 23 22 22 24 25 26 27 27 28 29
15 15 16 17 16 16 16 16 17 19 20 21 22 23 23 24 25 26 28 29 31 31 32 32 33 33 34 33 33 31 30 29 27 25 24 24 23 23 24 26 27 27 28 29
13 14 15 15 15 15 15 15 16 17 18 18 20 20 21 22 23 24 26 28 29 30 31 32 33 34 34 33 33 32 31 30 29 26 25 24 24 24 25 25 25 23 24 27
13 14 15 14 14 14 14 14 15 16 16 16 18 18 19 20 21 22 24 25 26 27 29 30 31 32 33 33 33 33 32 31 29 28 27 26 26 25 24 24 23 22 23 24
14 14 14 13 13 14 13 14 14 15 16 16 16 17 18 18 19 20 21 23 24 25 27 28 30 31 31 31 32 32 32 31 30 29 29 29 27 26 25 24 25 24 23 23
13 13 12 12 13 13 12 12 13 13 14 14 13 14 13 13 15 17 19 20 21 23 24 25 27 28 29 30 31 31 31 30 29 29 28 27 26 26 25 25 25 24 25 25
11 12 12 12 12 12 11 11 11 12 12 12 12 14 13 11 12 14 17 18 20 21 22 23 24 25 27 28 30 30 30 30 30 29 28 27 27 26 25 25 24 24 25 25
9 10 12 11 10 10 10 9 10 11 10 12 13 13 13 12 12 13 15 17 19 20 21 22 23 25 26 27 28 29 29 30 30 29 28 27 26 24 24 24 23 24 24 25
8 9 10 10 9 9 9 10 11 11 11 13 13 14 13 12 12 12 14 16 18 20 22 22 23 25 26 27 28 28 28 28 28 28 27 27 26 25 24 24 24 24 24 25
8 9 9 9 9 9 9 10 11 10 12 13 14 14 12 11 11 11 12 14 16 18 21 23 23 24 25 27 28 29 28 29 29 28 28 28 27 26 25 25 25 26 27 27
8 9 9 9 9 9 10 10 11 12 13 13 13 13 13 12 12 12 13 12 14 16 18 21 22 23 24 26 27 28 28 28 29 28 28 28 28 27 26 26 27 27 27 27
9 9 8 9 9 8 9 10 11 11 12 13 13 14 12 12 12 12 13 13 13 15 16 18 20 22 22 24 26 27 27 27 28 29 29 29 29 28 28 28 28 28 28 28
8 8 7 8 9 8 9 10 10 10 11 12 12 14 12 11 12 12 11 12 13 13 14 15 17 19 20 22 23 24 25 26 27 27 27 27 28 28 28 28 28 27 28 28
7 7 7 8 9 9 8 8 9 10 11 12 12 13 12 12 12 12 12 12 13 13 14 14 16 18 19 21 22 23 22 23 24 26 26 27 27 28 27 27 27 27 28 29
7 7 7 8 8 8 7 8 9 10 10 12 13 13 12 12 12 13 12 13 13 14 15 16 16 18 18 19 20 21 22 23 24 24 25 25 25 25 25 26 27 27 27 28
7 7 6 6 6 7 7 8 9 10 12 13 13 12 12 12 12 13 13 13 13 14 15 16 17 18 19 19 19 20 21 22 22 23 23 23 24 24 24 25 25 26 27 28
6 6 5 5 6 6 8 9 10 11 12 13 13 12 12 12 13 13 13 13 13 14 15 15 16 18 18 18 19 19 19 21 22 22 22 22 22 23 23 23 24 24 25 26
6 5 5 5 6 6 8 9 10 11 12 12 12 12 12 12 13 12 12 13 13 14 14 15 17 17 17 17 18 19 20 20 21 21 21 21 21 22 23 23 23 22 23 23
5 5 5 5 6 7 9 9 10 11 11 12 12 12 12 12 12 12 12 12 13 13 14 15 15 16 17 17 18 19 19 19 18 18 19 19 20 20 20 20 20 20 21 21
6 5 5 5 6 7 8 9 9 10 10 11 11 10 10 11 11 11 11 12 13 13 13 14 14 15 16 17 17 18 17 16 16 17 18 18 18 18 18 18 19 19 19 20
6 5 4 4 5 6 7 7 8 9 10 10 10 9 9 10 10 10 10 10 10 11 12 13 13 14 14 15 15 15 15 15 15 16 16 16 16 17 17 17 17 17 18 18
5 4 4 3 4 6 6 7 8 9 9 9 8 8 8 8 9 9 9 9 9 10 10 10 10 11 11 12 12 12 12 13 13 13 14 14 14 14 15 15 15 15 16 16
5 4 3 3 3 4 5 6 8 8 9 8 8 7 7 7 8 8 8 8 8 8 8 7 8 8 8 8 8 9 10 10 11 11 12 12 12 12 12 13 13 13 13 14
6 5 3 2 2 4 5 6 7 8 8 8 8 8 7 7 7 7 7 7 7 6 4 5 5 5 6 6 6 6 7 8 8 9 9 10 10 10 11 11 11 11 11 11
6 4 2 1 2 3 5 6 7 7 7 7 7 8 7 7 7 7 7 7 7 5 3 3 3 3 3 4 4 5 5 6 6 6 7 7 7 8 8 8 8 8 8 8
7 4 2 0 2 4 5 6 7 7 7 7 7 8 8 8 8 7 7 7 7 6 5 4 4 4 3 3 3 3 2 2 3 3 3 4 5 5 5 5 5 5 6 6
Wind_Direction
288 289 287 285 285 280 277 274 271 268 268 266 264 262 259 256 252 248 245 242 242 240 238 236 237 238 241 242 246 250 252 257 259 263 266 268 266 263 259 254 250 247 245 243
291 288 289 291 288 285 281 277 274 272 270 268 267 266 263 258 254 250 246 243 241 240 238 237 236 239 241 244 247 250 252 256 260 263 266 265 266 264 260 255 253 249 246 244
289 287 292 293 290 287 283 277 272 271 273 273 272 271 267 262 257 251 247 244 241 239 239 237 237 238 240 243 246 250 253 256 259 263 265 264 266 267 265 259 256 253 249 245
289 292 294 293 289 286 284 279 275 274 275 276 274 272 269 264 259 253 248 244 241 239 238 238 238 238 240 243 245 249 252 256 259 260 260 261 264 266 266 261 258 254 251 250
291 295 295 291 286 283 280 279 279 278 277 276 274 271 270 265 256 251 247 243 240 237 237 237 237 238 239 242 245 248 251 255 259 260 258 258 260 263 264 263 260 257 254 252
292 295 295 291 287 285 284 285 285 284 280 277 278 276 274 264 254 250 245 241 238 236 235 235 236 237 238 241 244 247 250 255 257 258 259 258 259 262 262 260 258 255 253 253
294 294 295 294 290 289 286 284 287 288 282 282 279 274 273 270 260 250 240 236 236 235 235 236 235 237 239 242 244 247 250 253 255 256 257 259 259 260 260 259 258 255 253 254
282 286 292 294 290 283 283 276 272 279 279 277 280 278 279 277 270 258 243 239 236 235 235 236 236 237 240 243 245 247 249 252 254 255 256 258 259 260 258 258 257 257 256 256
276 277 286 289 289 285 282 277 272 271 280 285 280 279 283 276 272 267 252 240 237 235 235 235 236 237 239 241 243 246 248 250 252 253 256 257 256 258 256 256 256 258 257 258
272 278 283 285 286 286 279 274 275 281 279 282 287 293 284 273 271 264 257 248 238 237 236 237 239 239 241 241 242 243 247 249 250 250 253 254 255 256 256 256 257 258 260 262
270 277 287 291 290 281 279 276 274 273 274 282 287 287 285 275 269 262 256 251 246 244 239 238 239 241 242 243 243 245 247 247 247 249 251 252 254 255 256 257 257 259 261 263
268 274 283 290 290 279 270 270 274 277 285 290 291 291 284 275 273 268 263 256 253 252 246 244 245 244 244 245 244 243 247 248 248 249 251 253 253 254 255 257 259 260 262 264
271 274 286 297 298 290 283 275 279 286 288 291 292 293 285 280 280 279 273 264 260 258 253 249 249 248 248 249 248 250 251 251 251 252 253 256 256 256 257 260 261 262 263 265
269 274 269 264 269 280 284 288 290 290 290 292 292 292 285 280 279 280 275 270 264 262 261 260 259 255 254 254 254 255 254 255 255 254 257 260 257 257 259 261 263 264 265 267
267 275 274 270 272 277 282 290 291 290 291 291 294 293 286 285 284 282 278 272 267 263 262 263 265 262 260 261 259 257 258 259 259 259 259 260 258 259 261 263 264 266 267 268
266 270 269 276 279 275 282 291 293 291 292 294 295 293 289 289 285 282 279 274 270 265 263 264 266 266 264 262 262 263 262 261 262 261 262 263 262 264 266 267 268 269 270 272
260 263 267 278 282 284 285 289 295 296 296 295 296 296 291 289 287 283 280 278 276 272 267 266 267 266 265 264 263 264 263 262 263 264 264 265 266 268 269 271 272 272 273 274
246 248 264 276 280 286 290 294 299 300 298 297 296 295 292 289 289 286 284 280 276 272 269 269 268 268 267 267 267 267 265 264 266 267 268 268 269 271 272 272 273 273 275 276
233 244 257 268 280 290 297 301 304 304 304 303 302 299 294 290 290 288 284 280 276 273 273 271 267 268 268 267 268 269 266 266 268 268 267 268 269 271 273 274 275 276 277 278
233 243 257 270 283 292 300 307 312 314 313 312 307 301 296 294 295 294 289 283 277 276 273 268 265 268 267 268 268 268 269 268 268 269 270 271 272 274 276 276 278 278 278 279
230 240 251 270 288 298 310 316 321 322 322 320 315 308 301 299 298 299 297 289 280 279 275 268 268 270 270 269 267 266 269 269 271 272 272 273 274 275 276 276 278 278 278 279
215 225 239 267 289 302 314 324 330 331 329 329 324 316 312 308 305 304 305 299 292 287 285 275 270 271 271 269 267 268 269 270 272 273 274 276 277 275 275 276 278 279 280 280
198 206 226 263 297 312 322 331 336 336 336 334 333 329 324 321 317 313 317 313 307 297 291 284 281 280 276 272 269 268 268 270 272 274 277 278 276 275 277 278 278 280 281 281
194 200 217 269 320 333 337 339 342 342 341 341 342 346 344 339 336 336 337 334 329 317 308 303 299 292 285 281 277 275 272 274 275 275 276 278 276 277 277 280 281 283 284 285
187 190 199 294 347 355 354 353 355 355 355 356 356 358 359 357 357 359 1 360 358 350 338 332 332 332 314 303 293 286 282 279 272 274 279 281 283 282 281 281 283 285 287 290
185 181 175 25 12 11 8 8 7 8 10 13 13 12 11 11 10 10 14 16 15 17 18 12 1 358 354 339 323 316 302 292 287 296 306 304 301 294 287 285 289 292 294 297
Height
5795 5795 5794 5793 5793 5792 5791 5791 5791 5790 5790 5791 5791 5792 5794 5794 5796 5798 5800 5802 5805 5808 5811 5814 5816 5819 5821 5823 5824 5825 5827 5827 5827 5828 5828 5828 5828 5828 5828 5828 5828 5829 5831 5833
5791 5791 5790 5788 5788 5787 5787 5787 5787 5786 5785 5786 5786 5787 5787 5788 5789 5791 5793 5795 5798 5801 5804 5807 5809 5812 5814 5816 5818 5819 5821 5822 5822 5823 5823 5823 5823 5824 5824 5824 5823 5824 5826 5827
5787 5787 5785 5784 5784 5783 5782 5782 5782 5781 5780 5780 5781 5781 5782 5782 5783 5784 5786 5788 5790 5793 5796 5799 5802 5805 5807 5810 5812 5813 5815 5816 5816 5817 5817 5818 5818 5818 5818 5818 5817 5818 5819 5821
5783 5782 5781 5780 5780 5779 5778 5778 5777 5777 5777 5777 5778 5778 5777 5776 5777 5778 5779 5781 5784 5786 5789 5792 5795 5798 5800 5803 5805 5807 5809 5810 5811 5811 5811 5811 5811 5812 5812 5812 5813 5814 5814 5815
5779 5778 5778 5777 5776 5775 5775 5774 5773 5773 5773 5773 5773 5773 5773 5771 5772 5773 5774 5775 5778 5780 5783 5785 5788 5791 5794 5796 5798 5800 5802 5803 5804 5805 5805 5805 5806 5806 5806 5807 5807 5808 5809 5810
5776 5775 5774 5773 5772 5771 5771 5771 5770 5769 5770 5770 5769 5769 5769 5767 5767 5768 5769 5770 5772 5775 5777 5779 5782 5785 5787 5790 5792 5794 5795 5796 5797 5798 5799 5799 5800 5800 5800 5801 5801 5802 5803 5805
5774 5772 5771 5770 5769 5768 5768 5769 5769 5769 5768 5768 5766 5765 5766 5763 5763 5764 5765 5766 5768 5770 5772 5774 5776 5779 5781 5783 5785 5787 5789 5790 5791 5792 5792 5793 5794 5794 5794 5795 5796 5797 5797 5799
5772 5772 5769 5767 5767 5766 5766 5766 5768 5767 5767 5765 5763 5762 5762 5760 5759 5759 5760 5762 5763 5765 5767 5769 5771 5773 5775 5777 5779 5780 5782 5783 5784 5785 5786 5787 5788 5788 5789 5789 5790 5791 5791 5792
5769 5769 5766 5765 5764 5764 5764 5763 5764 5763 5763 5762 5760 5759 5758 5757 5756 5756 5756 5757 5759 5761 5762 5764 5766 5767 5769 5771 5772 5774 5776 5777 5778 5779 5779 5780 5781 5782 5782 5783 5784 5784 5785 5785
5766 5766 5765 5763 5762 5761 5761 5761 5761 5761 5760 5759 5758 5756 5755 5754 5753 5753 5753 5753 5755 5756 5758 5759 5760 5762 5763 5764 5766 5768 5769 5770 5771 5772 5773 5774 5775 5776 5776 5777 5777 5778 5778 5778
5763 5763 5763 5761 5760 5760 5759 5758 5758 5758 5757 5756 5755 5756 5752 5750 5750 5750 5750 5750 5751 5751 5752 5753 5755 5756 5757 5758 5759 5761 5762 5763 5764 5765 5767 5768 5768 5769 5769 5770 5770 5770 5771 5771
5760 5760 5760 5759 5757 5756 5756 5755 5755 5755 5754 5752 5752 5753 5748 5747 5746 5746 5746 5746 5746 5747 5747 5748 5748 5749 5751 5752 5753 5754 5755 5756 5757 5758 5759 5760 5761 5761 5762 5762 5763 5763 5763 5763
5757 5758 5758 5758 5757 5755 5753 5752 5752 5751 5750 5749 5749 5750 5745 5744 5743 5743 5742 5742 5742 5742 5743 5743 5743 5744 5745 5746 5747 5748 5748 5749 5750 5751 5751 5752 5753 5753 5754 5754 5755 5755 5755 5755
5755 5755 5756 5756 5754 5753 5751 5750 5749 5748 5748 5747 5746 5744 5743 5741 5741 5740 5739 5739 5739 5739 5739 5739 5739 5740 5740 5740 5741 5741 5742 5742 5743 5744 5744 5744 5745 5746 5746 5747 5747 5747 5747 5747
5752 5753 5752 5751 5750 5750 5749 5748 5747 5746 5745 5744 5743 5741 5739 5738 5737 5736 5735 5735 5735 5735 5735 5735 5735 5735 5735 5735 5735 5735 5736 5736 5736 5737 5737 5738 5738 5738 5738 5739 5739 5739 5739 5739
5750 5750 5750 5749 5748 5748 5747 5746 5745 5744 5742 5741 5739 5738 5736 5735 5734 5733 5732 5731 5731 5731 5731 5730 5730 5730 5730 5730 5730 5730 5730 5730 5730 5731 5731 5731 5731 5732 5732 5732 5732 5732 5732 5732
5748 5748 5748 5748 5747 5746 5746 5744 5743 5741 5739 5738 5736 5735 5733 5732 5730 5730 5729 5728 5727 5727 5726 5726 5725 5725 5725 5724 5724 5724 5724 5724 5724 5724 5725 5725 5725 5725 5725 5725 5725 5725 5725 5724
5746 5746 5746 5746 5746 5745 5746 5742 5740 5738 5737 5735 5733 5731 5730 5729 5727 5726 5725 5724 5723 5723 5722 5721 5721 5720 5720 5719 5719 5719 5719 5719 5719 5719 5719 5719 5719 5720 5720 5719 5719 5719 5718 5718
5744 5745 5745 5744 5744 5744 5742 5740 5738 5736 5734 5732 5730 5728 5727 5725 5724 5722 5721 5720 5719 5718 5718 5717 5716 5715 5715 5715 5715 5714 5714 5714 5714 5714 5714 5714 5714 5714 5714 5714 5713 5713 5712 5712
5743 5743 5744 5743 5742 5742 5741 5738 5735 5734 5731 5729 5727 5725 5724 5722 5721 5720 5718 5716 5715 5714 5713 5712 5712 5711 5711 5710 5710 5710 5709 5709 5709 5709 5709 5709 5709 5709 5709 5708 5708 5707 5706 5706
5742 5742 5742 5741 5741 5740 5738 5736 5734 5733 5731 5727 5724 5723 5721 5719 5718 5717 5714 5713 5711 5710 5709 5708 5707 5707 5706 5706 5706 5705 5705 5705 5705 5705 5705 5704 5704 5704 5704 5703 5702 5702 5701 5700
5740 5741 5741 5740 5740 5740 5736 5734 5733 5731 5728 5725 5723 5721 5719 5717 5715 5713 5711 5710 5708 5706 5705 5704 5704 5703 5702 5702 5701 5701 5701 5701 5701 5701 5701 5700 5700 5699 5699 5698 5698 5697 5696 5695
5739 5740 5740 5740 5740 5737 5735 5733 5731 5729 5726 5724 5722 5719 5717 5715 5713 5711 5709 5707 5705 5703 5702 5701 5701 5700 5699 5698 5698 5698 5698 5698 5697 5697 5697 5696 5696 5696 5695 5694 5694 5693 5692 5691
5739 5739 5739 5738 5737 5735 5734 5732 5730 5727 5725 5723 5720 5718 5716 5714 5712 5709 5707 5705 5703 5702 5700 5699 5698 5697 5696 5696 5695 5695 5695 5695 5695 5694 5694 5693 5693 5692 5691 5691 5690 5689 5688 5687
5738 5738 5738 5737 5736 5735 5733 5731 5729 5727 5724 5722 5720 5717 5715 5713 5711 5708 5706 5704 5702 5701 5699 5698 5697 5696 5695 5694 5693 5693 5693 5692 5692 5691 5691 5690 5690 5689 5688 5688 5687 5687 5686 5685
5737 5738 5738 5737 5736 5735 5733 5731 5729 5727 5724 5722 5720 5717 5715 5712 5710 5708 5706 5704 5702 5700 5699 5697 5696 5695 5694 5693 5692 5691 5691 5691 5690 5690 5689 5688 5687 5687 5686 5686 5686 5685 5684 5683